{"data":{"norad_id":53859,"intl_designator":"2022-114AT","name":"STARLINK-4790","alt_names":[],"object_type":"PAYLOAD","status":"ACTIVE","operator":null,"country":"US","launch_date":"2022-09-19","launch_site_code":"AFETR","launch_vehicle":null,"mission":null,"orbit_class":"UNKNOWN","rcs_meters":null,"size_class":null,"mass_kg":null,"dimensions":null,"purposes":["comms"],"wikipedia_slug":null,"has_3d_model":false,"image_url":null,"decayed_at":null,"tle_current":{"epoch":"2026-05-25T04:14:39.533280Z","epoch_age_seconds":66739,"freshness":"FRESH","line1":"1 53859U 22114AT  26145.17684645  .00000108  00000+0  24872-4 0  9994","line2":"2 53859  53.2144 305.4109 0000832  70.6770 289.4312 15.08837564204599","mean_motion":15.08837564,"eccentricity":8.32e-5,"inclination_deg":53.2144,"raan_deg":305.4109,"arg_perigee_deg":70.677,"mean_anomaly_deg":289.4312,"bstar":2.4872e-5,"rev_number":20459,"period_min":95.437708760544,"perigee_km":539.17526658373,"apogee_km":540.32640311944,"semimajor_km":6917.8878348516,"source":"CELESTRAK","updated_at":"2026-05-25T13:38:17.578389Z"}}}